weather.gov     
National Weather Service

Regional Weather Roundup
NWS Homepage
This page is being discontinued on March 12, 2014.
The same data is available at this site. Please update your bookmarks.
Thank you, and we apologize for the inconvenience.
Please send an email to SR-SRH.Webmaster@noaa.gov with any concerns.


Current Version
Previous Version:    01  02  03  04  05  06  07  08  09  10  11  12  13  14  15  16  17  18  19  20  21  22  23  24  
[Printable]
259
ASUS44 KSJT 241010
RWRSJT
WEST CENTRAL TEXAS REGIONAL WEATHER ROUNDUP
NATIONAL WEATHER SERVICE SAN ANGELO TX
500 AM CDT THU APR 24 2014

NOTE: "FAIR" INDICATES FEW OR NO CLOUDS BELOW 12,000 FEET WITH NO
SIGNIFICANT WEATHER AND/OR OBSTRUCTIONS TO VISIBILITY.

TXZ049-054-064>066-071>073-076>078-098-099-113-114-127-128-139-140-
154-155-168>170-241100
...LOCATIONS ACROSS WEST CENTRAL TEXAS...

CITY           SKY/WX    TMP DP  RH WIND       PRES   REMARKS
SAN ANGELO     CLEAR     70  61  73 SW13      29.74S
ABILENE        CLEAR     69  60  73 S17G29    29.70S
DYESS AFB      CLEAR     70  61  72 S20G28    29.70R
JUNCTION       MOCLDY    68  60  75 SE3       29.76F
SWEETWATER     PTCLDY    72  58  61 W12       29.83R
BROWNWOOD      CLOUDY    66  59  77 SE8       29.75S
COLEMAN        SUNNY     66  58  74 S6        29.76R
SONORA         PTCLDY    68  63  83 S6        29.80S
OZONA          FAIR      68  61  77 SW6       29.82R
BRADY          PTCLDY    64  59  82 SE9       29.76S
$$

TEXAS PANHANDLE/OKLAHOMA PANHANDLE

CITY           SKY/WX    TMP DP  RH WIND       PRES   REMARKS
AMARILLO       CLOUDY    54  33  45 NW26G32   29.84R HAZE
BORGER         CLOUDY    56  29  35 N18G35    29.81R
CANADIAN       PTCLDY    58  38  47 N28G41    29.68F
DALHART        PTCLDY    48  34  58 N32G40    29.92R HAZE    WCI  39
DUMAS          CLOUDY    47  33  57 N35G44    29.86R HAZE    WCI  38
GUYMON         NOT AVBL
HEREFORD       CLOUDY    53  34  48 N24G36    29.86R HAZE
PAMPA          PTSUNNY   53  31  42 N23G37    29.78R
PERRYTON       MOCLDY    55  32  42 N28G36    29.78F
$$

SOUTHERN PANHANDLE/SOUTH PLAINS/ROLLING PLAINS

CITY           SKY/WX    TMP DP  RH WIND       PRES   REMARKS
LUBBOCK        PTCLDY    63  19  18 W25G35    29.78R
SNYDER         PTCLDY    69  58  65 SW5       29.79S
CHILDRESS      CLOUDY    63  43  48 N18G26    29.71R HAZE
SEMINOLE       SUNNY     61  24  24 NW12      29.86R
$$

PERMIAN BASIN

CITY           SKY/WX    TMP DP  RH WIND       PRES   REMARKS
MIDLAND        CLEAR     64  52  64 NW10      29.82R
ODESSA           N/A    N/A N/A N/A MISG      29.83R
WINK           CLEAR     65  26  23 N8        29.82R
$$

FAR WEST/SOUTHWEST MOUNTAINS/TRANS PECOS

CITY           SKY/WX    TMP DP  RH WIND       PRES   REMARKS
ALPINE         SUNNY     66  24  19 NW3       30.01R
DRYDEN           N/A     69  58  67 N9        29.80R
EL PASO        FAIR      68   9  10 NW21G29   29.92S
FORT STOCKTON  PTCLDY    66  28  24 SW10      29.85R
GUADALUPE PASS CLEAR     62  11  13 W23G31    29.97R
MARFA          CLEAR     59  21  23 NW15      29.99R
PECOS          SUNNY     60  33  37 W9        29.84R
$$

DALLAS/FORT WORTH METROPLEX

CITY           SKY/WX    TMP DP  RH WIND       PRES   REMARKS
DFW AIRPORT    MOCLDY    69  61  75 S17       29.75S
FTW MEACHAM    MOCLDY    68  61  78 S16       29.74R
DAL-EXECUTIVE  PTCLDY    69  62  78 S10G20    29.76F
GRAND PRAIRIE  CLOUDY    68  59  73 S10G16    29.78F
ADDISON        PTCLDY    69  61  75 S13G21    29.78F
MESQUITE       CLOUDY    67  63  85 S8        29.79S
LANCASTER      PTSUNNY   66  60  81 S8        29.79S
$$

NORTH CENTRAL TEXAS

CITY           SKY/WX    TMP DP  RH WIND       PRES   REMARKS
SHRMAN/DENISON PTSUNNY   67  62  82 SE13      29.76S
GAINESVILLE    MOCLDY    67  61  81 SE15G21   29.75S
BRIDGEPORT     PTSUNNY   69  59  71 S10G16    29.74S
DENTON         MOCLDY    68  61  78 S14G24    29.75R
WAXAHACHIE     PTSUNNY   65  60  84 S9        29.79F
GRANBURY       SUNNY     69  61  77 SE15      29.74S
$$

WESTERN NORTH TEXAS

CITY           SKY/WX    TMP DP  RH WIND       PRES   REMARKS
WICHITA FALLS  CLEAR     67  62  84 S16       29.66F
VERNON         SUNNY     69  61  75 S13       29.64S
BRECKENRIDGE   SUNNY     71  61  71 S16       29.68F
COMANCHE       CLEAR     66  58  77 S8        29.75S
$$

CENTRAL AND SOUTH CENTRAL TEXAS

CITY           SKY/WX    TMP DP  RH WIND       PRES   REMARKS
AUSTIN/BERGSTM MOCLDY    66  63  90 S8        29.80R
WACO           PTCLDY    66  61  84 S13       29.78F
HILLSBORO      SUNNY     66  60  81 S13G21    29.78S
TEMPLE         MOCLDY    64  57  77 S16       29.82F
KILLEEN-GRAY   PTCLDY    64  61  88 SE12      29.78F
FORT HOOD      NOT AVBL
GEORGETOWN     CLOUDY    66  61  82 S13       29.80S
LAGO VISTA     CLOUDY    66  62  85 S7G16     29.81S
SAN MARCOS     MOCLDY    66  61  82 S8        29.81F
NEW BRAUNFELS  PTCLDY    63  61  93 S8        29.78F
RANDOLPH AFB   PTCLDY    62  60  93 SE6       29.79F
SAN ANTONIO    MOCLDY    67  63  87 SE12      29.79F
STINSON        PTCLDY    67  63  87 SE5       29.78S
PLEASANTON     NOT AVBL
LA GRANGE      MOCLDY    68  66  94 S8        29.80R
GIDDINGS       CLOUDY    67  64  87 S7        29.84S
$$

EAST TEXAS

CITY           SKY/WX    TMP DP  RH WIND       PRES   REMARKS
PARIS          PTCLDY    63  55  77 SE6       29.80S
CLARKSVILLE    SUNNY     65  58  80 CALM      29.81S
TYLER          CLOUDY    68  62  81 S12       29.82R
LONGVIEW       MOCLDY    67  62  84 S8        29.84R
PALESTINE      CLOUDY    68  62  81 S6        29.84S HAZE
NACOGDOCHES    CLOUDY    66  63  88 S3        29.86R
$$

TEXAS HILL COUNTRY AND EDWARDS PLATEAU

CITY           SKY/WX    TMP DP  RH WIND       PRES   REMARKS
LLANO          SUNNY     64  61  88 SE5       29.81S
HORSESHOE BAY  FAIR      65  60  83 S5        29.78S
KERRVILLE      CLOUDY    64  61  90 S13       29.80S
FREDERICKSBRG  PTCLDY    63  58  84 S6        29.79S
ROCKSPRINGS    MOSUNNY   64  61  88 SE12      29.81R
HONDO          MOCLDY    68  62  81 E6        29.80S
UVALDE         CLOUDY    68  63  84 E6        29.78S
DEL RIO        PTCLDY    70  62  76 E13       29.73R
$$

SOUTHEAST TEXAS

CITY           SKY/WX    TMP DP  RH WIND       PRES   REMARKS
COLLEGE STN    CLOUDY    68  65  90 S10       29.81R
CALDWELL       PTSUNNY   66  64  94 S7        29.84S
CROCKETT       CLOUDY    72  66  83 S5        29.85S
BRENHAM        MOCLDY    66  64  94 S6        29.82S
HUNTSVILLE     MOCLDY    68  64  87 S5        29.82S
CONROE         CLOUDY    67  64  90 SE6       29.83S
HOUSTON BUSH   MOCLDY    70  65  84 S9        29.82S
HOUSTON HOBBY  MOCLDY    69  66  90 SE5       29.82S
PERLAND        CLOUDY    71  65  81 S7        29.84R
WHARTON        PTSUNNY   66  65  95 SE5       29.83R
$$

THE UPPER TEXAS COAST

CITY           SKY/WX    TMP DP  RH WIND       PRES   REMARKS
ORANGE         CLOUDY    69  68  94 S7        29.87R
PORT ARTHUR    PTCLDY    68  65  90 S8        29.85R
GALVESTON      CLOUDY    71  69  93 S15       29.84F
ANGLETON       CLOUDY    70  67  90 S12       29.83S
BAY CITY       CLOUDY    72  69  91 SE7       29.81F
$$

TEXAS COASTAL BEND, RIO GRANDE PLAINS DEEP SOUTH TEXAS

CITY           SKY/WX    TMP DP  RH WIND       PRES   REMARKS
VICTORIA       CLEAR     70  66  87 S10       29.81R
BEEVILLE       PTSUNNY   70  68  93 SE6       29.79R
ROCKPORT       CLOUDY    72  69  90 S12       29.78R
PORT ARANSAS   MOSUNNY   71  69  95 S14G22    29.76S
PORT LAVACA    PTSUNNY   70  67  89 S7        29.81R
CORPUS CHRISTI MOCLDY    72  67  84 S14G23    29.74F
KINGSVILLE NAS CLEAR     71  68  90 SE14      29.73F
COTULLA        CLOUDY    70  63  78 E5        29.77S
LAREDO         CLOUDY    73  67  81 S10       29.77R
BROWNSVILLE    CLOUDY    73  70  90 S20       29.74F
PORT ISABEL    NOT AVBL
HEBBRONVILLE   SUNNY     68  65  92 SE9G16    29.73S
MCALLEN        PTCLDY    71  68  90 SE16G22   29.73S
WESLACO        PTCLDY    72  67  84 S10G18    29.73S
FALFURRIAS     MOSUNNY   70  66  88 SE10      29.73R
EDINBURG       MOSUNNY   73  68  84 S9        29.74R
$$




U.S. Dept. of Commerce
NOAA National Weather Service
1325 East West Highway
Silver Spring, MD 20910
E-mail: w-nws.webmaster@noaa.gov
Page last modified: May 16, 2007
NATIONAL WEATHER SERVICE: for Safety, for Work, for Fun - FOR LIFE